Terug naar catalogus

STARLINK-6032

ActiefCommunicatieVLEO
NORAD 57371·PAYLOAD·🇺🇸 United States

Gelanceerd Jul 16, 2023 vanaf Cape Canaveral Space Force Station

Loading…

Volgende Passages (komende 24 uur)

TLE

VersSource: CelesTrak SupGP

Epoch: Sep 15, 2026, 01:46 UTC

1 57371C 23099AV  26258.07409722 -.00015799  00000+0 -57235-3 0  2585
2 57371  42.9992 252.0524 0001395 265.1729 113.8234 15.27579181    19

Volg STARLINK-6032 in realtime met AllMySat

Download on the App Store